This is the latest recevied weather packets stored in our database for station/object KC2GYU. If no packets are shown the sender has not sent any weather packets the latest 10 day(s).
| Time | Temp. | Humidity | Pressure | Rain* | Wind** | Luminosity | Snow |
|---|---|---|---|---|---|---|---|
| 1777984238 | 18.89° C | 81% | 1013.6 hPa | 0 mm | - | 268 W/m² | - |
| 1777983935 | 18.89° C | 81% | 1013.3 hPa | 0 mm | - | 255 W/m² | - |
| 1777983632 | 18.33° C | 83% | 1013.4 hPa | 0 mm | - | 242 W/m² | - |
| 1777983329 | 18.33° C | 83% | 1013.5 hPa | 0 mm | - | 228 W/m² | - |
| 1777983026 | 17.78° C | 83% | 1013.5 hPa | 0 mm | - | 205 W/m² | - |
| 1777982722 | 17.78° C | 84% | 1013.4 hPa | 0 mm | - | 199 W/m² | - |
| 1777982417 | 17.78° C | 83% | 1013.4 hPa | 0 mm | - | 178 W/m² | - |
| 1777982112 | 17.22° C | 85% | 1013.4 hPa | 0 mm | - | 163 W/m² | - |
| 1777981810 | 16.67° C | 85% | 1013.3 hPa | 0 mm | - | 119 W/m² | - |
| 1777981507 | 16.67° C | 85% | 1013.6 hPa | 0 mm | - | 127 W/m² | - |
| 1777981203 | 16.67° C | 86% | 1013.3 hPa | 0 mm | - | 58 W/m² | - |
| 1777980900 | 16.11° C | 87% | 1013.2 hPa | 0 mm | - | 60 W/m² | - |
| 1777980596 | 16.11° C | 88% | 1013.3 hPa | 0 mm | - | 89 W/m² | - |
| 1777980293 | 15.56° C | 88% | 1013.3 hPa | 0 mm | - | 79 W/m² | - |
| 1777979990 | 15° C | 90% | 1013.2 hPa | 0 mm | - | 71 W/m² | - |
| 1777979684 | 15° C | 91% | 1013.4 hPa | 0 mm | - | 49 W/m² | - |
| 1777979381 | 14.44° C | 92% | 1013.3 hPa | 0 mm | - | 43 W/m² | - |
| 1777979078 | 13.89° C | 94% | 1013.1 hPa | 0 mm | - | 42 W/m² | - |
| 1777978775 | 13.33° C | 95% | 1013.3 hPa | 0 mm | - | 37 W/m² | - |
| 1777978471 | 12.78° C | 95% | 1013.3 hPa | 0 mm | - | 33 W/m² | - |
| 1777978167 | 12.78° C | 95% | 1012.9 hPa | 0 mm | - | 31 W/m² | - |
| 1777977864 | 12.78° C | 95% | 1013 hPa | 0 mm | - | 28 W/m² | - |
| 1777977561 | 12.78° C | 95% | 1013.1 hPa | 0 mm | - | 26 W/m² | - |
| 1777977258 | 12.78° C | 95% | 1013.1 hPa | 0 mm | - | 22 W/m² | - |
| 1777976955 | 12.78° C | 95% | 1013 hPa | 0 mm | - | 18 W/m² | - |
* Rain latest hour (hover to see other rain measurements)
** Current wind speed in m/s (hover to see current wind gust speed)